Location: Great Malvern
(52.1167°N, 2.3167°W)
Time: 15:23:15
(UTC+00:00)

COSMO-SKYMED 1 - Pass Details

Date: 18 September 2020
Orbit: 621 x 623 km, 97.9° (Epoch: 22 October)

Event Time Altitude Azimuth Distance (km) Brightness Sun altitude
Rises 19:07:07 0° 9° (N) 2,918 6.1 -8.6°
Reaches altitude 10° 19:09:24 10° 2° (N) 2,007 5.3 -8.9°
Maximum altitude 19:13:30 41° 293° (WNW) 904 4.1 -9.5°
Drops below altitude 10° 19:17:35 10° 223° (SW) 1,991 5.5 -10.1°
Sets 19:19:50 0° 216° (SW) 2,893 6.3 -10.5°
